Weather Roundup
Issued by NWS Springfield, MO

Home | Current Version | Previous Version | Text Only | Print | Product List | Glossary On
Versions: 1 2 3 4 5 6 7 8 9 10 11 12 13 14 15 16 17 18 19 20 21 22 23 24 25 26 27 28 29 30 31 32 33 34 35 36 37 38 39 40 41 42 43 44 45 46 47 48 49 50
000
NZUS99 KSGF 221907
HRRSGF

HOURLY WEATHER
NATIONAL WEATHER SERVICE SPRINGFIELD MO
200 PM CDT FRI MAY 22 2015

......SGF CWA......

CITY           SKY/WX    TMP DP  RH WIND       PRES   REMARKS
SPRINGFIELD    CLOUDY    66  46  48 SE9       30.26F
JOPLIN         LGT RAIN  62  47  57 E9        30.24F
WEST PLAINS    PTSUNNY   64  44  48 E3        30.30F
ROLLA          CLOUDY    64  51  62 SW9       30.28S
OSAGE BEACH    CLOUDY    68  46  45 CALM      30.28F
BRANSON        CLOUDY    64  46  52 SE9       30.27F

......SURROUNDING SGF CWA......

CITY           SKY/WX    TMP DP  RH WIND       PRES   REMARKS
CHANUTE        CLOUDY    63  50  62 SE12      30.22S
PARSONS        CLOUDY    64  53  67 SE8       30.23F
COFFEYVILLE    CLOUDY    61  52  72 S12       30.22F
EMPORIA        CLOUDY    61  49  64 SE13      30.22F
GROVE OK       LGT RAIN  63  52  67 E7        30.24F
ROGERS AR      CLOUDY    63  47  55 VRB5      30.26F
SILOAM SPRINGS CLOUDY    63  48  59 E7        30.25F
HARRISON AR    CLOUDY    64  48  56 SE8       30.27F
NEAR YELLVILLE PTSUNNY   66  46  48 E5        30.26F

......KANSAS AND MISSOURI......

CITY           SKY/WX    TMP DP  RH WIND       PRES   REMARKS
KANSAS CTY INT CLOUDY    63  49  60 S7        30.25F
DOWNTOWN KC    CLOUDY    67  44  43 SE7       30.25F
COLUMBIA       CLOUDY    68  52  56 SW13      30.27S
SEDALIA        CLOUDY    66  51  58 SW5       30.29F
ST JOSEPH      CLOUDY    62  48  60 SW7       30.26S
ST LOUIS       CLOUDY    74  51  44 SW7       30.25S
SPIRIT OF STL  CLOUDY    72  49  44 SW6       30.24S
KIRKSVILLE     CLOUDY    71  53  52 SW7       30.25S
WICHITA        CLOUDY    57  54  89 S13       30.19F FOG
TOPEKA         CLOUDY    62  46  55 SE9       30.23F
OLATHE         CLOUDY    63  49  60 SE8       30.24F

......TENNESSEE......

CITY           SKY/WX    TMP DP  RH WIND       PRES   REMARKS
MEMPHIS        MOSUNNY   73  45  36 CALM      30.27F
NASHVILLE      MOSUNNY   72  43  35 NE3       30.28S

......ARKANSAS.......

CITY           SKY/WX    TMP DP  RH WIND       PRES   REMARKS
FAYETTEVILLE   CLOUDY    64  47  53 SE6       30.24F
FT SMITH       CLOUDY    64  49  57 E12       30.23F
LITTLE ROCK    MOSUNNY   70  50  49 VRB6      30.25F

......OKLAHOMA.......

CITY           SKY/WX    TMP DP  RH WIND       PRES   REMARKS
TULSA          CLOUDY    60  54  80 SE13      30.20F
PONCA CITY     CLOUDY    61  55  81 SE13      30.19F
MCALESTER      LGT RAIN  57  55  93 E9        30.19S FOG
OKLAHOMA CITY  LGT RAIN  57  54  89 SE17      30.16F

......IOWA............

CITY           SKY/WX    TMP DP  RH WIND       PRES   REMARKS
DES MOINES     CLOUDY    75  37  25 SW3       30.21F
QUAD CITIES    SUNNY     76  34  21 VRB5      30.19F

......ILLINOIS........

CITY           SKY/WX    TMP DP  RH WIND       PRES   REMARKS
QUINCY         CLOUDY    73  39  29 W6        30.23S HAZE
CHICAGO        MOSUNNY   65  29  25 E9        30.24S



USA.gov is the U.S. government's official web portal to all federal, state and local government web resources and services.